Weather History for Pompano Beach, FL

Change the Weather History Date:

Saturday, May 11, 2013

  Actual Average Record
Temperature  
Mean Temperature 78 °F -  
Max Temperature 86 °F 85 °F 95 °F (2008)
Min Temperature 71 °F 69 °F 56 °F (1955)
Cooling Degree Days 14    
Growing Degree Days 28 (Base 50)    
Moisture  
Dew Point 73 °F    
Average Humidity 83    
Maximum Humidity 100    
Minimum Humidity 65    
Precipitation  
Precipitation 0.21 in - - ()
Sea Level Pressure  
Sea Level Pressure 30.05 in    
Wind  
Wind Speed 7 mph (SSE)    
Max Wind Speed 20 mph    
Max Gust Speed 25 mph    
Visibility 9 miles    
Events Rain    
Averages and records for this station are not official NWS values.
T = Trace of Precipitation, MM = Missing Value Source: NWS Daily Summary

Daily Weather History Graph

Daily Weather History Graph

Search for Another Location

Airport:

Trip Planner

Search our weather history database for the weather conditions in past years. The results will help you decide how hot, cold, wet, or windy it might be!

Date:

Astronomy

May. 11, 2013 Rise Set
Actual Time 6:36 AM EDT 7:57 PM EDT
Civil Twilight 6:11 AM EDT 8:22 PM EDT
Nautical Twilight 5:41 AM EDT 8:52 PM EDT
Astronomical Twilight 5:10 AM EDT 9:23 PM EDT
Moon 7:45 AM EDT (5/11) 9:33 PM EDT (5/11)
Length of Visible Light 14h 11m
Length of Day
13h 21m
Waxing Crescent, 3% of the Moon is Illuminated
May 11
Waxing Crescent
May 18
First Quarter
May 25
Full
May 31
Last Quarter
Jun 8
New

Hourly Weather History & Observations

Time (EDT) Temp. Heat Index Dew Point Humidity Pressure Visibility Wind Dir Wind Speed Gust Speed Precip Events Conditions
12:53 AM 79.0 °F - 73.9 °F 84% 30.08 in 10.0 mi South 5.8 mph - N/A   Clear
1:53 AM 78.1 °F - 75.0 °F 90% 30.07 in 10.0 mi South 3.5 mph - N/A   Clear
2:53 AM 78.1 °F - 75.0 °F 90% 30.05 in 10.0 mi Calm Calm - N/A   Clear
3:53 AM 77.0 °F - 73.9 °F 90% 30.05 in 10.0 mi Calm Calm - N/A   Clear
4:53 AM 77.0 °F - 75.0 °F 94% 30.05 in 10.0 mi Calm Calm - N/A   Partly Cloudy
5:53 AM 75.0 °F - 73.9 °F 96% 30.04 in 10.0 mi Calm Calm - N/A   Clear
6:53 AM 75.0 °F - 73.9 °F 96% 30.05 in 10.0 mi Calm Calm - N/A   Clear
7:53 AM 79.0 °F - 73.9 °F 84% 30.07 in 10.0 mi SSE 9.2 mph - N/A   Partly Cloudy
8:53 AM 81.0 °F 85.8 °F 73.0 °F 77% 30.07 in 10.0 mi SSE 11.5 mph - N/A   Clear
9:53 AM 82.9 °F 89.4 °F 73.9 °F 74% 30.09 in 10.0 mi SSE 13.8 mph - N/A   Scattered Clouds
10:53 AM 82.9 °F 88.8 °F 73.0 °F 72% 30.08 in 10.0 mi South 11.5 mph 18.4 mph 0.00 in   Scattered Clouds
11:53 AM 84.0 °F 91.2 °F 73.9 °F 72% 30.07 in 10.0 mi SSE 16.1 mph 25.3 mph N/A   Scattered Clouds
12:53 PM 84.0 °F 89.6 °F 72.0 °F 67% 30.06 in 10.0 mi SSE 19.6 mph 25.3 mph N/A   Clear
1:53 PM 84.9 °F 90.7 °F 72.0 °F 65% 30.04 in 10.0 mi SSE 16.1 mph 25.3 mph N/A   Scattered Clouds
2:53 PM 86.0 °F 93.8 °F 73.9 °F 67% 30.03 in 10.0 mi SSE 13.8 mph 24.2 mph N/A   Scattered Clouds
3:53 PM 82.0 °F 86.3 °F 71.1 °F 69% 30.04 in 10.0 mi SSW 12.7 mph - N/A   Scattered Clouds
4:53 PM 82.0 °F 87.4 °F 73.0 °F 74% 30.00 in 10.0 mi SSE 16.1 mph 23.0 mph 0.03 in   Scattered Clouds
5:53 PM 80.1 °F 84.2 °F 73.0 °F 79% 30.00 in 10.0 mi South 10.4 mph - N/A   Scattered Clouds
6:53 PM 80.1 °F 83.8 °F 72.0 °F 76% 30.01 in 10.0 mi South 11.5 mph - N/A   Clear
7:53 PM 80.1 °F 84.2 °F 73.0 °F 79% 30.03 in 10.0 mi South 10.4 mph - 0.00 in   Mostly Cloudy
8:41 PM 73.4 °F - 71.6 °F 94% 30.06 in 2.0 mi NNW 10.4 mph 21.9 mph 0.17 in Rain Heavy Rain
8:45 PM 71.6 °F - 71.6 °F 100% 30.06 in 3.0 mi NNW 6.9 mph - 0.17 in Rain Rain
8:53 PM 72.0 °F - 71.1 °F 97% 30.06 in 9.0 mi ENE 5.8 mph - 0.18 in Rain Light Rain
9:53 PM 73.9 °F - 73.0 °F 97% 30.06 in 10.0 mi Calm Calm - 0.00 in   Partly Cloudy
10:53 PM 75.0 °F - 73.0 °F 94% 30.07 in 10.0 mi Calm Calm - N/A   Overcast